Location: Newark
(45.2500°N, 7.5833°E)
Time: 16:15:36
(UTC+00:00)

Tiros 1 despin weight - Pass Details

Date: 28 January 2020
Orbit: 594 x 642 km, 48.2° (Epoch: 23 February)

Event Time Altitude Azimuth Distance (km) Brightness Sun altitude
Rises 10:26:50 0° 245° (WSW) 2,847 ? 24.2°
Reaches altitude 10° 10:29:07 10° 244° (WSW) 1,953 ? 24.3°
Maximum altitude 10:33:36 82° 158° (SSE) 625 ? 24.6°
Drops below altitude 10° 10:38:11 10° 71° (ENE) 1,990 ? 24.8°
Sets 10:40:31 0° 71° (ENE) 2,906 ? 24.9°
